| time (UTC) | temp F | wind direction | speed MPH | gust MPH | rain 1hr in | rain 24hr in | rain mn in | humidity % | barometer mb |
| 20260905022634 | 76 | 214 | 0.0 | 0.0 | 0.00 | 0.00 | 0.00 | 99 | 1008.3 |
| 20260905022034 | 76 | 214 | 0.0 | 0.0 | 0.00 | 0.00 | 0.00 | 99 | 1008.3 |
| 20260905021434 | 77 | 214 | 0.0 | 0.0 | 0.00 | 0.00 | 0.00 | 99 | 1008.7 |
| 20260905020834 | 77 | 214 | 0.0 | 0.0 | 0.00 | 0.00 | 0.00 | 98 | 1008.4 |
| 20260905020234 | 77 | 214 | 0.0 | 0.0 | 0.00 | 0.00 | 0.00 | 98 | 1008.7 |
| 20260905015730 | 77 | 214 | 0.0 | 0.0 | 0.00 | 0.00 | 0.00 | 98 | 1008.6 |
| 20260905015210 | 77 | 214 | 0.0 | 0.0 | 0.00 | 0.00 | 0.00 | 98 | 1008.6 |
| 20260905014650 | 77 | 214 | 0.0 | 0.0 | 0.00 | 0.00 | 0.00 | 97 | 1008.5 |
| 20260905014133 | 77 | 214 | 0.0 | 0.0 | 0.00 | 0.00 | 0.00 | 97 | 1008.3 |
| 20260905013534 | 77 | 214 | 0.0 | 0.0 | 0.00 | 0.00 | 0.00 | 97 | 1008.3 |
| 20260905012934 | 77 | 214 | 0.0 | 0.0 | 0.00 | 0.00 | 0.00 | 96 | 1008.1 |
| 20260905012334 | 77 | 214 | 0.0 | 0.0 | 0.00 | 0.00 | 0.00 | 96 | 1008.3 |
| 20260905011733 | 78 | 214 | 0.0 | 0.0 | 0.00 | 0.00 | 0.00 | 96 | 1008.0 |
| 20260905011134 | 78 | 214 | 0.0 | 0.0 | 0.00 | 0.00 | 0.00 | 95 | 1008.2 |
| 20260905010534 | 79 | 214 | 0.0 | 0.0 | 0.00 | 0.00 | 0.00 | 95 | 1008.3 |
| 20260905010026 | 79 | 214 | 0.0 | 0.0 | 0.00 | 0.00 | 0.00 | 94 | 1007.9 |
| 20260905005506 | 79 | 214 | 0.0 | 0.0 | 0.00 | 0.00 | 0.00 | 94 | 1008.1 |
| 20260905004946 | 79 | 214 | 0.0 | 0.0 | 0.00 | 0.00 | 0.00 | 93 | 1007.9 |
| 20260905004426 | 80 | 214 | 0.0 | 0.0 | 0.00 | 0.00 | 0.00 | 92 | 1007.9 |
| 20260905003906 | 81 | 214 | 0.0 | 0.0 | 0.00 | 0.00 | 0.00 | 91 | 1007.9 |
| 20260905003346 | 81 | 213 | 0.0 | 0.0 | 0.00 | 0.00 | 0.00 | 90 | 1008.0 |
| 20260905002826 | 82 | 213 | 0.0 | 0.0 | 0.00 | 0.00 | 0.00 | 89 | 1007.7 |
| 20260905002306 | 82 | 213 | 0.0 | 0.0 | 0.00 | 0.00 | 0.00 | 88 | 1008.0 |
| 20260905001746 | 84 | 214 | 0.0 | 0.0 | 0.00 | 0.00 | 0.00 | 86 | 1007.8 |
| 20260905001226 | 84 | 213 | 0.0 | 0.0 | 0.00 | 0.00 | 0.00 | 84 | 1007.7 |
| 20260905000706 | 85 | 213 | 0.0 | 0.0 | 0.00 | 0.00 | 0.00 | 82 | 1007.8 |
| 20260904235626 | 88 | 213 | 0.0 | 0.0 | 0.00 | 0.00 | 0.00 | 75 | 1007.6 |
| 20260904235107 | 89 | 213 | 0.0 | 0.0 | 0.00 | 0.00 | 0.00 | 73 | 1007.8 |
| 20260904234546 | 90 | 213 | 0.0 | 0.0 | 0.00 | 0.00 | 0.00 | 72 | 1007.5 |
| 20260904234026 | 91 | 213 | 0.0 | 0.0 | 0.00 | 0.00 | 0.00 | 71 | 1007.8 |
| 20260904233506 | 92 | 213 | 0.0 | 0.0 | 0.00 | 0.00 | 0.00 | 68 | 1007.5 |
| 20260904232946 | 92 | 213 | 0.0 | 0.0 | 0.00 | 0.00 | 0.00 | 70 | 1007.8 |
| 20260904232426 | 93 | 213 | 0.0 | 0.0 | 0.00 | 0.00 | 0.00 | 68 | 1007.5 |
| 20260904231906 | 93 | 213 | 0.0 | 0.0 | 0.00 | 0.00 | 0.00 | 67 | 1007.7 |
| 20260904231346 | 94 | 213 | 0.0 | 0.0 | 0.00 | 0.00 | 0.00 | 68 | 1007.6 |
| 20260904230826 | 92 | 213 | 0.0 | 0.0 | 0.00 | 0.00 | 0.00 | 69 | 1007.5 |
| 20260904230306 | 92 | 213 | 0.0 | 0.0 | 0.00 | 0.00 | 0.00 | 69 | 1007.8 |
| 20260904225746 | 93 | 213 | 0.0 | 0.0 | 0.00 | 0.00 | 0.00 | 68 | 1007.8 |
| 20260904225226 | 93 | 213 | 0.0 | 0.0 | 0.00 | 0.00 | 0.00 | 67 | 1007.6 |
| 20260904224706 | 94 | 213 | 0.0 | 0.0 | 0.00 | 0.00 | 0.00 | 66 | 1007.6 |
| 20260904224146 | 94 | 213 | 0.0 | 0.0 | 0.00 | 0.00 | 0.00 | 67 | 1007.6 |
| 20260904223626 | 95 | 213 | 0.0 | 0.0 | 0.00 | 0.00 | 0.00 | 65 | 1007.6 |
| 20260904222546 | 96 | 213 | 0.0 | 1.0 | 0.00 | 0.00 | 0.00 | 62 | 1007.6 |
| 20260904222026 | 99 | 213 | 0.0 | 1.0 | 0.00 | 0.00 | 0.00 | 59 | 1007.6 |
| 20260904221506 | 98 | 213 | 1.0 | 2.0 | 0.00 | 0.00 | 0.00 | 53 | 1007.4 |
| 20260904220946 | 98 | 213 | 0.0 | 1.0 | 0.00 | 0.00 | 0.00 | 49 | 1007.8 |
| 20260904220426 | 98 | 213 | 1.0 | 1.0 | 0.00 | 0.00 | 0.00 | 53 | 1007.8 |
| 20260904215906 | 98 | 291 | 1.0 | 1.0 | 0.00 | 0.00 | 0.00 | 52 | 1008.1 |
| 20260904215346 | 97 | 292 | 0.0 | 1.0 | 0.00 | 0.00 | 0.00 | 56 | 1008.1 |
| 20260904214826 | 97 | 253 | 0.0 | 1.0 | 0.00 | 0.00 | 0.00 | 59 | 1008.0 |
| 20260904214306 | 97 | 253 | 0.0 | 1.0 | 0.00 | 0.00 | 0.00 | 60 | 1007.7 |
| 20260904213746 | 98 | 253 | 1.0 | 1.0 | 0.00 | 0.00 | 0.00 | 60 | 1007.9 |
| 20260904213226 | 99 | 254 | 2.0 | 3.0 | 0.00 | 0.00 | 0.00 | 51 | 1008.0 |
| 20260904212706 | 98 | 238 | 1.0 | 2.0 | 0.00 | 0.00 | 0.00 | 50 | 1008.0 |
| 20260904212146 | 99 | 240 | 1.0 | 2.0 | 0.00 | 0.00 | 0.00 | 50 | 1007.9 |
| 20260904211626 | 100 | 211 | 2.0 | 3.0 | 0.00 | 0.00 | 0.00 | 51 | 1008.0 |
| 20260904211106 | 99 | 210 | 0.0 | 1.0 | 0.00 | 0.00 | 0.00 | 48 | 1008.2 |
| 20260904210546 | 99 | 210 | 1.0 | 1.0 | 0.00 | 0.00 | 0.00 | 50 | 1008.4 |
| 20260904210026 | 98 | 210 | 1.0 | 2.0 | 0.00 | 0.00 | 0.00 | 52 | 1008.4 |
| 20260904205506 | 99 | 210 | 1.0 | 1.0 | 0.00 | 0.00 | 0.00 | 53 | 1008.3 |
| 20260904204946 | 99 | 219 | 0.0 | 1.0 | 0.00 | 0.00 | 0.00 | 48 | 1008.6 |
| 20260904204426 | 98 | 225 | 1.0 | 1.0 | 0.00 | 0.00 | 0.00 | 51 | 1008.6 |
| 20260904203906 | 97 | 218 | 1.0 | 2.0 | 0.00 | 0.00 | 0.00 | 50 | 1008.6 |
| 20260904203346 | 97 | 279 | 2.0 | 3.0 | 0.00 | 0.00 | 0.00 | 51 | 1008.7 |
| 20260904202833 | 98 | 191 | 2.0 | 2.0 | 0.00 | 0.00 | 0.00 | 51 | 1008.5 |
| 20260904201633 | 97 | 298 | 2.0 | 3.0 | 0.00 | 0.00 | 0.00 | 51 | 1008.8 |
| 20260904201123 | 97 | 266 | 3.0 | 5.0 | 0.00 | 0.00 | 0.00 | 53 | 1008.7 |
| 20260904200602 | 99 | 251 | 3.0 | 4.0 | 0.00 | 0.00 | 0.00 | 50 | 1008.9 |
| 20260904200042 | 98 | 181 | 1.0 | 2.0 | 0.00 | 0.00 | 0.00 | 49 | 1008.9 |
| 20260904195522 | 97 | 260 | 0.0 | 1.0 | 0.00 | 0.00 | 0.00 | 52 | 1009.0 |
| 20260904195003 | 98 | 197 | 1.0 | 2.0 | 0.00 | 0.00 | 0.00 | 52 | 1009.2 |
| 20260904194442 | 99 | 177 | 0.0 | 2.0 | 0.00 | 0.00 | 0.00 | 51 | 1009.1 |
| 20260904193922 | 98 | 194 | 0.0 | 0.0 | 0.00 | 0.00 | 0.00 | 50 | 1009.7 |
| 20260904193402 | 98 | 256 | 0.0 | 1.0 | 0.00 | 0.00 | 0.00 | 51 | 1009.4 |
| 20260904192842 | 97 | 309 | 2.0 | 2.0 | 0.00 | 0.00 | 0.00 | 52 | 1009.5 |
| 20260904192322 | 98 | 199 | 0.0 | 1.0 | 0.00 | 0.00 | 0.00 | 57 | 1009.8 |
| 20260904191802 | 98 | 282 | 0.0 | 0.0 | 0.00 | 0.00 | 0.00 | 51 | 1009.7 |
| 20260904191242 | 97 | 250 | 0.0 | 1.0 | 0.00 | 0.00 | 0.00 | 52 | 1009.8 |
| 20260904190202 | 97 | 264 | 3.0 | 4.0 | 0.00 | 0.00 | 0.00 | 52 | 1009.8 |
| 20260904185642 | 98 | 243 | 2.0 | 2.0 | 0.00 | 0.00 | 0.00 | 54 | 1010.0 |
| 20260904185122 | 97 | 242 | 0.0 | 1.0 | 0.00 | 0.00 | 0.00 | 55 | 1010.0 |
| 20260904184602 | 96 | 327 | 2.0 | 2.0 | 0.00 | 0.00 | 0.00 | 57 | 1010.2 |
| 20260904184042 | 97 | 328 | 2.0 | 3.0 | 0.00 | 0.00 | 0.00 | 54 | 1010.2 |
| 20260904183522 | 96 | 311 | 1.0 | 2.0 | 0.00 | 0.00 | 0.00 | 54 | 1010.3 |
| 20260904183003 | 95 | 250 | 1.0 | 2.0 | 0.00 | 0.00 | 0.00 | 58 | 1010.4 |
| 20260904182442 | 95 | 272 | 3.0 | 4.0 | 0.00 | 0.00 | 0.00 | 58 | 1010.2 |
| 20260904181922 | 96 | 297 | 4.0 | 5.0 | 0.00 | 0.00 | 0.00 | 54 | 1010.7 |
| 20260904181402 | 95 | 250 | 1.0 | 2.0 | 0.00 | 0.00 | 0.00 | 57 | 1010.5 |
| 20260904180842 | 95 | 210 | 1.0 | 2.0 | 0.00 | 0.00 | 0.00 | 57 | 1010.4 |
| 20260904180233 | 96 | 264 | 2.0 | 4.0 | 0.00 | 0.00 | 0.00 | 59 | 1010.7 |
| 20260904175730 | 96 | 315 | 2.0 | 4.0 | 0.00 | 0.00 | 0.00 | 58 | 1010.8 |
| 20260904175210 | 95 | 267 | 2.0 | 3.0 | 0.00 | 0.00 | 0.00 | 57 | 1010.6 |
| 20260904174651 | 95 | 287 | 3.0 | 4.0 | 0.00 | 0.00 | 0.00 | 58 | 1010.8 |
| 20260904174133 | 95 | 227 | 4.0 | 5.0 | 0.00 | 0.00 | 0.00 | 59 | 1010.6 |
| 20260904173533 | 94 | 257 | 1.0 | 2.0 | 0.00 | 0.00 | 0.00 | 61 | 1010.8 |
| 20260904172933 | 94 | 285 | 4.0 | 5.0 | 0.00 | 0.00 | 0.00 | 57 | 1010.8 |
| 20260904172333 | 95 | 245 | 2.0 | 3.0 | 0.00 | 0.00 | 0.00 | 60 | 1010.8 |
| 20260904171733 | 94 | 221 | 1.0 | 2.0 | 0.00 | 0.00 | 0.00 | 58 | 1011.0 |
| 20260904171133 | 94 | 290 | 4.0 | 4.0 | 0.00 | 0.00 | 0.00 | 59 | 1011.0 |
| 20260904170533 | 94 | 257 | 4.0 | 5.0 | 0.00 | 0.00 | 0.00 | 60 | 1011.0 |
| 20260904165933 | 94 | 272 | 2.0 | 3.0 | 0.00 | 0.00 | 0.00 | 61 | 1011.0 |
| 20260904165333 | 93 | 239 | 2.0 | 3.0 | 0.00 | 0.00 | 0.00 | 62 | 1011.2 |
| 20260904164734 | 93 | 260 | 2.0 | 4.0 | 0.00 | 0.00 | 0.00 | 62 | 1011.3 |
| 20260904164133 | 93 | 225 | 2.0 | 2.0 | 0.00 | 0.00 | 0.00 | 63 | 1011.2 |
| 20260904163533 | 93 | 262 | 3.0 | 4.0 | 0.00 | 0.00 | 0.00 | 63 | 1011.2 |
| 20260904162933 | 93 | 265 | 3.0 | 4.0 | 0.00 | 0.00 | 0.00 | 64 | 1011.0 |
| 20260904162333 | 93 | 243 | 3.0 | 3.0 | 0.00 | 0.00 | 0.00 | 64 | 1011.1 |
| 20260904161733 | 92 | 271 | 2.0 | 2.0 | 0.00 | 0.00 | 0.00 | 64 | 1011.0 |
| 20260904161226 | 92 | 220 | 2.0 | 4.0 | 0.00 | 0.00 | 0.00 | 62 | 1011.0 |
| 20260904160707 | 92 | 271 | 2.0 | 3.0 | 0.00 | 0.00 | 0.00 | 64 | 1011.0 |
| 20260904160146 | 92 | 260 | 3.0 | 4.0 | 0.00 | 0.00 | 0.00 | 64 | 1010.9 |
| 20260904155633 | 91 | 258 | 1.0 | 1.0 | 0.00 | 0.00 | 0.00 | 67 | 1010.9 |
| 20260904154433 | 91 | 282 | 4.0 | 5.0 | 0.00 | 0.00 | 0.00 | 64 | 1010.9 |
| 20260904153834 | 91 | 240 | 2.0 | 3.0 | 0.00 | 0.00 | 0.00 | 68 | 1010.9 |
| 20260904153233 | 91 | 258 | 3.0 | 5.0 | 0.00 | 0.00 | 0.00 | 65 | 1010.9 |
| 20260904152633 | 90 | 251 | 4.0 | 4.0 | 0.00 | 0.00 | 0.00 | 68 | 1010.7 |
| 20260904152033 | 89 | 260 | 2.0 | 3.0 | 0.00 | 0.00 | 0.00 | 69 | 1010.9 |
| 20260904151433 | 89 | 280 | 3.0 | 3.0 | 0.00 | 0.00 | 0.00 | 70 | 1010.9 |
| 20260904150833 | 89 | 267 | 2.0 | 3.0 | 0.00 | 0.00 | 0.00 | 68 | 1010.9 |
| 20260904150233 | 88 | 268 | 2.0 | 2.0 | 0.00 | 0.00 | 0.00 | 72 | 1010.9 |
| 20260904145633 | 88 | 277 | 4.0 | 5.0 | 0.00 | 0.00 | 0.00 | 72 | 1010.9 |
| 20260904145033 | 88 | 228 | 4.0 | 5.0 | 0.00 | 0.00 | 0.00 | 71 | 1010.8 |
| 20260904144433 | 88 | 227 | 1.0 | 2.0 | 0.00 | 0.00 | 0.00 | 73 | 1010.8 |
| 20260904143833 | 87 | 232 | 3.0 | 4.0 | 0.00 | 0.00 | 0.00 | 73 | 1010.8 |
| 20260904143233 | 86 | 262 | 2.0 | 3.0 | 0.00 | 0.00 | 0.00 | 74 | 1010.9 |
| 20260904142633 | 86 | 268 | 3.0 | 4.0 | 0.00 | 0.00 | 0.00 | 74 | 1010.9 |
| 20260904142033 | 87 | 209 | 3.0 | 5.0 | 0.00 | 0.00 | 0.00 | 74 | 1010.7 |
| 20260904141433 | 86 | 243 | 2.0 | 3.0 | 0.00 | 0.00 | 0.00 | 74 | 1010.9 |
| 20260904140833 | 86 | 229 | 2.0 | 3.0 | 0.00 | 0.00 | 0.00 | 74 | 1010.7 |
| 20260904140233 | 86 | 246 | 2.0 | 3.0 | 0.00 | 0.00 | 0.00 | 77 | 1010.9 |
| 20260904135730 | 85 | 269 | 1.0 | 2.0 | 0.00 | 0.00 | 0.00 | 77 | 1010.8 |
| 20260904135210 | 85 | 217 | 0.0 | 1.0 | 0.00 | 0.00 | 0.00 | 78 | 1010.8 |
| 20260904134650 | 85 | 251 | 0.0 | 1.0 | 0.00 | 0.00 | 0.00 | 78 | 1010.7 |
| 20260904134133 | 84 | 251 | 0.0 | 1.0 | 0.00 | 0.00 | 0.00 | 78 | 1010.7 |
| 20260904133533 | 84 | 251 | 0.0 | 0.0 | 0.00 | 0.00 | 0.00 | 82 | 1011.1 |
| 20260904132933 | 81 | 251 | 0.0 | 0.0 | 0.00 | 0.00 | 0.00 | 87 | 1010.9 |
| 20260904132333 | 79 | 251 | 0.0 | 1.0 | 0.00 | 0.00 | 0.00 | 93 | 1010.7 |
| 20260904131733 | 78 | 252 | 0.0 | 0.0 | 0.00 | 0.00 | 0.00 | 99 | 1011.0 |
| 20260904131133 | 77 | 252 | 0.0 | 0.0 | 0.00 | 0.00 | 0.00 | 99 | 1010.8 |
| 20260904130533 | 78 | 252 | 0.0 | 1.0 | 0.00 | 0.00 | 0.00 | 99 | 1010.6 |
| 20260904125933 | 77 | 252 | 0.0 | 0.0 | 0.00 | 0.00 | 0.00 | 99 | 1010.7 |
| 20260904125333 | 76 | 252 | 0.0 | 0.0 | 0.00 | 0.00 | 0.00 | 99 | 1010.4 |
| 20260904124734 | 76 | 252 | 0.0 | 0.0 | 0.00 | 0.00 | 0.00 | 99 | 1010.5 |
| 20260904124133 | 75 | 252 | 0.0 | 0.0 | 0.00 | 0.00 | 0.00 | 99 | 1010.5 |
| 20260904122933 | 74 | 252 | 0.0 | 0.0 | 0.00 | 0.00 | 0.00 | 99 | 1010.1 |
| 20260904122426 | 73 | 252 | 0.0 | 0.0 | 0.00 | 0.00 | 0.00 | 99 | 1010.1 |
| 20260904121907 | 73 | 252 | 0.0 | 0.0 | 0.00 | 0.00 | 0.00 | 99 | 1010.2 |
| 20260904121333 | 72 | 252 | 0.0 | 0.0 | 0.00 | 0.00 | 0.00 | 99 | 1010.0 |
| 20260904120733 | 72 | 252 | 0.0 | 0.0 | 0.00 | 0.00 | 0.00 | 99 | 1010.0 |
| 20260904120133 | 72 | 252 | 0.0 | 0.0 | 0.00 | 0.00 | 0.00 | 99 | 1009.9 |
| 20260904115533 | 71 | 252 | 0.0 | 0.0 | 0.00 | 0.00 | 0.00 | 99 | 1010.0 |
| 20260904114933 | 71 | 252 | 0.0 | 0.0 | 0.00 | 0.00 | 0.00 | 99 | 1010.2 |
| 20260904114333 | 71 | 252 | 0.0 | 0.0 | 0.00 | 0.00 | 0.00 | 99 | 1010.1 |
| 20260904113733 | 71 | 252 | 0.0 | 0.0 | 0.00 | 0.00 | 0.00 | 99 | 1010.0 |
| 20260904113133 | 71 | 252 | 0.0 | 0.0 | 0.00 | 0.00 | 0.00 | 99 | 1009.8 |
| 20260904112533 | 71 | 252 | 0.0 | 0.0 | 0.00 | 0.00 | 0.00 | 99 | 1010.1 |
| 20260904111933 | 70 | 252 | 0.0 | 0.0 | 0.00 | 0.00 | 0.00 | 99 | 1010.1 |
| 20260904111333 | 70 | 252 | 0.0 | 0.0 | 0.00 | 0.00 | 0.00 | 99 | 1010.1 |
| 20260904110133 | 70 | 252 | 0.0 | 0.0 | 0.00 | 0.00 | 0.00 | 99 | 1010.0 |
| 20260904104933 | 70 | 252 | 0.0 | 0.0 | 0.00 | 0.00 | 0.00 | 99 | 1010.0 |
| 20260904103733 | 70 | 252 | 0.0 | 0.0 | 0.00 | 0.00 | 0.00 | 99 | 1009.8 |
| 20260904103133 | 71 | 252 | 0.0 | 0.0 | 0.00 | 0.00 | 0.00 | 99 | 1009.8 |
| 20260904102533 | 71 | 252 | 0.0 | 0.0 | 0.00 | 0.00 | 0.00 | 99 | 1009.6 |
| 20260904101933 | 71 | 252 | 0.0 | 0.0 | 0.00 | 0.00 | 0.00 | 99 | 1009.8 |
| 20260904101333 | 71 | 252 | 0.0 | 0.0 | 0.00 | 0.00 | 0.00 | 99 | 1009.9 |
| 20260904100733 | 71 | 252 | 0.0 | 0.0 | 0.00 | 0.00 | 0.00 | 99 | 1009.8 |
| 20260904100133 | 71 | 252 | 0.0 | 0.0 | 0.00 | 0.00 | 0.00 | 99 | 1009.8 |
| 20260904094933 | 71 | 252 | 0.0 | 0.0 | 0.00 | 0.00 | 0.00 | 99 | 1009.7 |
| 20260904094333 | 71 | 252 | 0.0 | 0.0 | 0.00 | 0.00 | 0.00 | 99 | 1009.8 |
| 20260904093733 | 71 | 252 | 0.0 | 0.0 | 0.00 | 0.00 | 0.00 | 99 | 1009.7 |
| 20260904093133 | 71 | 252 | 0.0 | 0.0 | 0.00 | 0.00 | 0.00 | 99 | 1009.7 |
| 20260904092533 | 71 | 252 | 0.0 | 0.0 | 0.00 | 0.00 | 0.00 | 99 | 1009.6 |
| 20260904092027 | 71 | 252 | 0.0 | 0.0 | 0.00 | 0.00 | 0.00 | 99 | 1009.6 |
| 20260904091507 | 71 | 252 | 0.0 | 0.0 | 0.00 | 0.00 | 0.00 | 99 | 1009.5 |
| 20260904090939 | 71 | 252 | 0.0 | 0.0 | 0.00 | 0.00 | 0.00 | 99 | 1009.7 |
| 20260904090433 | 72 | 252 | 0.0 | 0.0 | 0.00 | 0.00 | 0.00 | 99 | 1009.7 |
| 20260904084833 | 71 | 252 | 0.0 | 0.0 | 0.00 | 0.00 | 0.00 | 99 | 1009.4 |
| 20260904084323 | 71 | 252 | 0.0 | 0.0 | 0.00 | 0.00 | 0.00 | 99 | 1009.3 |
| 20260904082723 | 72 | 252 | 0.0 | 0.0 | 0.00 | 0.00 | 0.00 | 99 | 1009.1 |
| 20260904082203 | 72 | 252 | 0.0 | 0.0 | 0.00 | 0.00 | 0.00 | 99 | 1009.4 |
| 20260904081633 | 72 | 252 | 0.0 | 0.0 | 0.00 | 0.00 | 0.00 | 99 | 1009.3 |
| 20260904081123 | 72 | 252 | 0.0 | 0.0 | 0.00 | 0.00 | 0.00 | 99 | 1009.5 |
| 20260904080603 | 72 | 252 | 0.0 | 0.0 | 0.00 | 0.00 | 0.00 | 99 | 1009.5 |
| 20260904080033 | 72 | 252 | 0.0 | 0.0 | 0.00 | 0.00 | 0.00 | 99 | 1009.5 |
| 20260904075523 | 72 | 252 | 0.0 | 0.0 | 0.00 | 0.00 | 0.00 | 99 | 1009.3 |
| 20260904075003 | 72 | 252 | 0.0 | 0.0 | 0.00 | 0.00 | 0.00 | 99 | 1009.3 |
| 20260904073923 | 72 | 252 | 0.0 | 0.0 | 0.00 | 0.00 | 0.00 | 99 | 1009.4 |
| 20260904073403 | 72 | 252 | 0.0 | 0.0 | 0.00 | 0.00 | 0.00 | 99 | 1009.5 |
| 20260904072833 | 72 | 252 | 0.0 | 0.0 | 0.00 | 0.00 | 0.00 | 99 | 1009.5 |
| 20260904072323 | 72 | 252 | 0.0 | 0.0 | 0.00 | 0.00 | 0.00 | 99 | 1009.7 |
| 20260904071803 | 73 | 252 | 0.0 | 0.0 | 0.00 | 0.00 | 0.00 | 99 | 1009.5 |
| 20260904071233 | 73 | 252 | 0.0 | 0.0 | 0.00 | 0.00 | 0.00 | 99 | 1009.5 |
| 20260904070723 | 73 | 252 | 0.0 | 0.0 | 0.00 | 0.00 | 0.00 | 99 | 1009.7 |
| 20260904065633 | 73 | 252 | 0.0 | 0.0 | 0.00 | 0.00 | 0.00 | 99 | 1009.7 |
| 20260904064603 | 73 | 252 | 0.0 | 0.0 | 0.00 | 0.00 | 0.00 | 99 | 1009.8 |
| 20260904064033 | 73 | 252 | 0.0 | 0.0 | 0.00 | 0.00 | 0.00 | 99 | 1009.6 |
| 20260904063523 | 73 | 252 | 0.0 | 0.0 | 0.00 | 0.00 | 0.00 | 99 | 1009.6 |
| 20260904063004 | 73 | 252 | 0.0 | 0.0 | 0.00 | 0.00 | 0.00 | 99 | 1009.7 |
| 20260904062433 | 73 | 252 | 0.0 | 0.0 | 0.00 | 0.00 | 0.00 | 99 | 1009.8 |
| 20260904061923 | 74 | 252 | 0.0 | 0.0 | 0.00 | 0.00 | 0.00 | 99 | 1009.7 |
| 20260904061403 | 74 | 252 | 0.0 | 0.0 | 0.00 | 0.00 | 0.00 | 99 | 1009.6 |
| 20260904060843 | 74 | 252 | 0.0 | 0.0 | 0.00 | 0.00 | 0.00 | 99 | 1009.8 |
| 20260904060323 | 73 | 252 | 0.0 | 0.0 | 0.00 | 0.00 | 0.00 | 99 | 1009.8 |
| 20260904055804 | 73 | 252 | 0.0 | 0.0 | 0.00 | 0.00 | 0.00 | 99 | 1009.7 |
| 20260904055243 | 73 | 252 | 0.0 | 0.0 | 0.00 | 0.00 | 0.00 | 99 | 1009.8 |
| 20260904054723 | 74 | 252 | 0.0 | 0.0 | 0.00 | 0.00 | 0.00 | 99 | 1009.8 |
| 20260904053633 | 74 | 252 | 0.0 | 0.0 | 0.00 | 0.00 | 0.00 | 99 | 1009.9 |
| 20260904053033 | 73 | 252 | 0.0 | 0.0 | 0.00 | 0.00 | 0.00 | 99 | 1009.5 |
| 20260904052433 | 74 | 252 | 0.0 | 0.0 | 0.00 | 0.00 | 0.00 | 99 | 1009.7 |
| 20260904051833 | 74 | 252 | 0.0 | 0.0 | 0.00 | 0.00 | 0.00 | 99 | 1009.7 |
| 20260904051233 | 74 | 252 | 0.0 | 0.0 | 0.00 | 0.00 | 0.00 | 99 | 1009.7 |
| 20260904050033 | 75 | 252 | 0.0 | 0.0 | 0.00 | 0.00 | 0.00 | 99 | 1009.7 |
| 20260904045433 | 75 | 252 | 0.0 | 0.0 | 0.00 | 0.00 | 0.00 | 99 | 1009.6 |
| 20260904044833 | 75 | 252 | 0.0 | 0.0 | 0.00 | 0.00 | 0.00 | 99 | 1009.6 |
| 20260904044233 | 75 | 252 | 0.0 | 0.0 | 0.00 | 0.00 | 0.00 | 99 | 1009.6 |
| 20260904043633 | 75 | 252 | 0.0 | 0.0 | 0.00 | 0.00 | 0.00 | 99 | 1009.6 |
| 20260904042433 | 75 | 252 | 0.0 | 0.0 | 0.00 | 0.00 | 0.00 | 99 | 1009.6 |
| 20260904041833 | 75 | 252 | 0.0 | 0.0 | 0.00 | 0.00 | 0.00 | 99 | 1009.4 |
| 20260904041233 | 75 | 252 | 0.0 | 0.0 | 0.00 | 0.00 | 0.00 | 99 | 1009.4 |
| 20260904040633 | 75 | 252 | 0.0 | 0.0 | 0.00 | 0.00 | 0.00 | 99 | 1009.6 |
| 20260904040033 | 75 | 252 | 0.0 | 0.0 | 0.00 | 0.00 | 0.00 | 99 | 1009.5 |
| 20260904035433 | 75 | 252 | 0.0 | 0.0 | 0.00 | 0.00 | 0.00 | 99 | 1009.5 |
| 20260904034833 | 75 | 252 | 0.0 | 0.0 | 0.00 | 0.00 | 0.00 | 99 | 1009.4 |
| 20260904034233 | 76 | 252 | 0.0 | 0.0 | 0.00 | 0.00 | 0.00 | 99 | 1009.4 |
| 20260904033633 | 76 | 252 | 0.0 | 0.0 | 0.00 | 0.00 | 0.00 | 99 | 1009.6 |
| 20260904033033 | 76 | 252 | 0.0 | 0.0 | 0.00 | 0.00 | 0.00 | 99 | 1009.4 |
| 20260904032433 | 76 | 252 | 0.0 | 0.0 | 0.00 | 0.00 | 0.00 | 99 | 1009.7 |
| 20260904031833 | 76 | 252 | 0.0 | 0.0 | 0.00 | 0.00 | 0.00 | 99 | 1009.4 |
| 20260904031233 | 76 | 252 | 0.0 | 0.0 | 0.00 | 0.00 | 0.00 | 99 | 1009.4 |
| 20260904030633 | 76 | 252 | 0.0 | 0.0 | 0.00 | 0.00 | 0.00 | 99 | 1009.4 |
| 20260904030034 | 77 | 252 | 0.0 | 0.0 | 0.00 | 0.00 | 0.00 | 99 | 1009.2 |
| 20260904025433 | 76 | 252 | 0.0 | 0.0 | 0.00 | 0.00 | 0.00 | 99 | 1009.5 |
| 20260904024833 | 77 | 252 | 0.0 | 0.0 | 0.00 | 0.00 | 0.00 | 99 | 1009.4 |
| 20260904024233 | 77 | 252 | 0.0 | 0.0 | 0.00 | 0.00 | 0.00 | 99 | 1009.3 |
| 20260904023633 | 77 | 252 | 0.0 | 0.0 | 0.00 | 0.00 | 0.00 | 99 | 1009.5 |
| 20260904023033 | 77 | 252 | 0.0 | 0.0 | 0.00 | 0.00 | 0.00 | 98 | 1009.2 |